Weather History for Parkersburg, WV

Change the Weather History Date:

Sunday, April 28, 2013

  Actual Average Record
Temperature  
Mean Temperature 61 °F 58 °F  
Max Temperature 68 °F 70 °F 91 °F (1986)
Min Temperature 54 °F 46 °F 27 °F (1934)
Degree Days  
Heating Degree Days 4 8  
Month to date heating degree days 315 330  
Since 1 July heating degree days 4863 4791  
Cooling Degree Days 0 1  
Month to date cooling degree days 29 18  
Year to date cooling degree days 29 21  
Growing Degree Days 10 (Base 50)    
Moisture  
Dew Point 49 °F    
Average Humidity 73    
Maximum Humidity 93    
Minimum Humidity 52    
Precipitation  
Precipitation 0.26 in 0.11 in 1.43 in (2002)
Month to date precipitation 1.61 3.05  
Year to date precipitation 9.82 12.43  
Sea Level Pressure  
Sea Level Pressure 30.02 in    
Wind  
Wind Speed 8 mph (SSE)    
Max Wind Speed 21 mph    
Max Gust Speed 31 mph    
Visibility 9 miles    
Events Rain    
T = Trace of Precipitation, MM = Missing Value Source: NWS Daily Summary

Daily Weather History Graph

Daily Weather History Graph

Search for Another Location

Airport:

Trip Planner

Search our weather history database for the weather conditions in past years. The results will help you decide how hot, cold, wet, or windy it might be!

Date:

Astronomy

Apr. 28, 2013 Rise Set
Actual Time 6:30 AM EDT 8:16 PM EDT
Civil Twilight 6:01 AM EDT 8:45 PM EDT
Nautical Twilight 5:26 AM EDT 9:20 PM EDT
Astronomical Twilight 4:49 AM EDT 9:57 PM EDT
Moon 11:44 PM EDT (4/28) 8:46 AM EDT (4/28)
Length of Visible Light 14h 43m
Length of Day
13h 45m
Waning Gibbous, 89% of the Moon is Illuminated
Apr 28
Waning Gibbous
May 2
Last Quarter
May 9
New
May 18
First Quarter
May 25
Full

Hourly Weather History & Observations

Time (EDT) Temp. Dew Point Humidity Pressure Visibility Wind Dir Wind Speed Gust Speed Precip Events Conditions
12:53 AM 59.0 °F 43.0 °F 55% 30.16 in 10.0 mi Calm Calm - N/A   Overcast
1:53 AM 59.0 °F 45.0 °F 60% 30.14 in 10.0 mi ESE 3.5 mph - N/A   Overcast
2:53 AM 57.9 °F 45.0 °F 62% 30.10 in 10.0 mi ESE 3.5 mph - N/A   Mostly Cloudy
3:53 AM 55.9 °F 45.0 °F 67% 30.08 in 10.0 mi East 4.6 mph - N/A   Partly Cloudy
4:53 AM 55.9 °F 45.0 °F 67% 30.07 in 10.0 mi ESE 4.6 mph - N/A   Overcast
5:53 AM 57.0 °F 45.0 °F 64% 30.05 in 10.0 mi ESE 4.6 mph - N/A   Overcast
6:39 AM 55.4 °F 48.2 °F 77% 30.06 in 6.0 mi SE 8.1 mph - 0.01 in Rain Light Rain
6:53 AM 55.0 °F 48.9 °F 80% 30.06 in 3.0 mi SSE 9.2 mph - 0.03 in Rain Light Rain
7:53 AM 54.0 °F 51.1 °F 90% 30.06 in 3.0 mi SE 8.1 mph - 0.08 in Rain Rain
8:18 AM 53.6 °F 51.8 °F 94% 30.08 in 4.0 mi SSE 9.2 mph - 0.04 in Rain Light Rain
9:10 AM 55.4 °F 51.8 °F 88% 30.07 in 7.0 mi SSE 11.5 mph 18.4 mph 0.00 in Rain Light Rain
9:53 AM 55.0 °F 52.0 °F 89% 30.05 in 9.0 mi SE 9.2 mph - 0.01 in Rain Light Rain
10:30 AM 55.4 °F 51.8 °F 88% 30.06 in 10.0 mi SSE 5.8 mph - 0.00 in   Overcast
10:37 AM 55.4 °F 51.8 °F 88% 30.05 in 10.0 mi SE 8.1 mph - 0.00 in   Mostly Cloudy
10:53 AM 57.0 °F 52.0 °F 83% 30.05 in 10.0 mi SSE 8.1 mph 16.1 mph 0.00 in   Mostly Cloudy
11:53 AM 60.1 °F 51.1 °F 72% 30.04 in 10.0 mi SSE 12.7 mph 19.6 mph N/A   Mostly Cloudy
12:10 PM 60.8 °F 51.8 °F 72% 30.04 in 10.0 mi SSE 13.8 mph 20.7 mph N/A   Scattered Clouds
12:17 PM 60.8 °F 50.0 °F 68% 30.03 in 10.0 mi South 15.0 mph 20.7 mph N/A   Mostly Cloudy
12:26 PM 60.8 °F 50.0 °F 68% 30.03 in 10.0 mi SSE 15.0 mph 25.3 mph N/A   Mostly Cloudy
12:53 PM 62.1 °F 51.1 °F 67% 30.02 in 10.0 mi South 15.0 mph 20.7 mph N/A   Overcast
1:53 PM 64.0 °F 50.0 °F 60% 29.99 in 10.0 mi South 15.0 mph 25.3 mph N/A   Mostly Cloudy
2:53 PM 64.0 °F 48.9 °F 58% 29.96 in 10.0 mi SSE 11.5 mph - N/A   Mostly Cloudy
3:53 PM 64.9 °F 50.0 °F 58% 29.95 in 10.0 mi SE 6.9 mph - 0.01 in   Overcast
4:53 PM 66.0 °F 48.9 °F 54% 29.93 in 10.0 mi SSE 9.2 mph 17.3 mph N/A   Mostly Cloudy
5:53 PM 66.0 °F 48.9 °F 54% 29.91 in 10.0 mi SE 9.2 mph - N/A   Overcast
6:53 PM 64.0 °F 52.0 °F 65% 29.92 in 10.0 mi SSE 5.8 mph - 0.01 in   Overcast
7:53 PM 64.0 °F 52.0 °F 65% 29.93 in 8.0 mi SSE 6.9 mph - 0.01 in Rain Light Rain
8:53 PM 61.0 °F 51.1 °F 70% 29.94 in 10.0 mi SE 8.1 mph - 0.02 in   Overcast
9:53 PM 61.0 °F 51.1 °F 70% 29.95 in 10.0 mi SSE 6.9 mph - N/A   Overcast
10:53 PM 61.0 °F 48.9 °F 64% 29.95 in 10.0 mi SSE 9.2 mph 17.3 mph N/A   Overcast
11:53 PM 61.0 °F 48.9 °F 64% 29.94 in 10.0 mi SSE 6.9 mph - N/A   Overcast